カタログに戻る

FENGYUN 1C DEB

運用中PO
NORAD 29901·DEBRIS·🇨🇳 China

打ち上げ May 10, 1999 から Taiyuan Satellite Launch Center

Loading…

次のパス (今後24時間)

TLE

最新Source: Space-Track

元期: Sep 13, 2026, 20:42 UTC

1 29901U 99025GX  26256.86299015  .00000172  00000-0  28501-3 0  9996
2 29901  98.7833  33.4912 0377734 320.2434 168.1781 13.33404812955855

AllMySatでFENGYUN 1C DEBをリアルタイム追跡

Download on the App Store